[[{"header":{"parameterUnit":"m.s-1","parameterCategory":2,"la1":30.2991,"la2":30.254,"lo1":-89.0895,"lo2":-89.0444,"dx":0.0017,"dy":0.0017,"nx":28,"ny":28,"refTime":"2022-11-28T15:00:00:Z","depth":"0","parameterNumber":2,"parameterNumberName":"U-component_of_CURRENTS"},"data":[0,0,0,0,0,0,0,0,0,0,0,0,0,0,0,0,0,0,0,0,0,0,0,0,0,0,0,0,0,0,0,0,0,0,0,0,0,0,0,0,0,0,0,0,0,0,0,0,0,0,0,0,0,0,0,0,0,0,0.5712,0.5713,0,0.5759,0.5759,0.5759,0.5755,0.5755,0.5755,0.5755,0.5547,0.5542,0.5537,0,0,0,0,0,0,0,0,0,0,0,0,0,0.56,0.5602,0.5712,0.5713,0.5715,0.5759,0.5759,0.5759,0.5755,0.5755,0.5755,0.5755,0.5549,0.5543,0.5536,0,0,0,0,0,0,0,0,0,0,0,0,0,0.5641,0.5602,0.5712,0.5723,0.5725,0.5759,0.5759,0.5759,0.5755,0.5755,0.5755,0.5755,0.5551,0.5543,0.5535,0.5486,0,0,0.551,0.5506,0,0,0,0,0,0,0,0,0.5639,0.5645,0.5721,0.5723,0.5725,0.5757,0.5644,0.5657,0.5756,0.5737,0.5755,0.5755,0.5598,0.5587,0.5589,0.5476,0.5467,0.5509,0.5504,0.5501,0.5498,0,0,0,0,0,0,0,0.5636,0.5643,0.5724,0.5722,0.5725,0.572,0.5725,0.5647,0.5657,0.5738,0.574,0.5756,0.5597,0.5597,0.5584,0.5464,0.551,0.5502,0.5497,0.5494,0.5377,0.5379,0,0,0,0,0,0,0.5646,0.564,0.5722,0.5726,0.5689,0.5723,0.5728,0.5741,0.5664,0.5656,0.5756,0.5756,0.5611,0.5593,0.5576,0.5595,0.5501,0.5493,0.5488,0.5375,0.5377,0.5379,0,0,0,0,0,0,0.5643,0.5653,0.572,0.5689,0.5699,0.5725,0.574,0.5743,0.5758,0.5682,0.5667,0.5772,0.5611,0.5587,0.5543,0.5583,0.5489,0.5482,0.5373,0.5376,0.5378,0.5579,0,0,0,0,0,0,0.564,0.5651,0.5658,0.569,0.5701,0.5753,0.5741,0.5744,0.577,0.5771,0.5689,0.567,0.5609,0.5556,0.5535,0.557,0.5475,0.5371,0.5374,0.5378,0.557,0.5588,0.5604,0,0,0,0,0,0.5635,0.5647,0.5658,0.5668,0.5712,0.5755,0.5759,0.5773,0.5772,0.5784,0.5745,0.5673,0.5563,0.5551,0.5526,0.556,0.5369,0.5373,0.5377,0.5563,0.5585,0.5604,0,0,0,0,0,0,0.5593,0.565,0.5662,0.5688,0.5727,0.5757,0.5767,0.5784,0.5768,0.5759,0.5687,0.5665,0.5652,0.5569,0.5559,0.5537,0.5456,0.5456,0.5606,0.5626,0.5642,0.5618,0.5469,0,0,0,0,0,0.5592,0.5617,0.5671,0.5689,0.5711,0.5742,0.576,0.5778,0.5776,0.5771,0.5726,0.5673,0.5647,0.5609,0.5563,0.5528,0.5495,0.5535,0.5552,0.5567,0.5531,0.5561,0.5578,0.5393,0.5393,0.5393,0,0,0.5577,0.5615,0.5625,0.5683,0.5707,0.5743,0.575,0.5787,0.5813,0.5742,0.5744,0.5728,0.5656,0.5652,0.5635,0.5584,0.5616,0.5573,0.5586,0.554,0.5567,0.5585,0.5601,0.5396,0.5395,0.5395,0,0,0.5568,0.5598,0.562,0.566,0.5718,0.5744,0.5763,0.5809,0.5823,0.5834,0.5816,0.583,0.5749,0.5744,0.572,0.5788,0.5719,0.5772,0.5816,0.585,0.5865,0.5878,0.5923,0.5938,0.5764,0.5765,0.5765,0,0.5549,0.5588,0.5631,0.567,0.57,0.575,0.5781,0.5811,0.5839,0.585,0.5846,0.5837,0.5797,0.5815,0.5855,0.5827,0.5829,0.5756,0.5875,0.5886,0.5896,0.5938,0.5952,0.5775,0.5774,0.5773,0.5772,0,0.5567,0.5598,0.5615,0.568,0.5717,0.5754,0.5813,0.5848,0.5876,0.5905,0.5946,0.594,0.5923,0.595,0.5915,0.5974,0.5953,0.5916,0.5832,0.5928,0.5965,0.5977,0.5789,0.5786,0.5783,0.578,0,0,0.552,0.5609,0.5613,0.5641,0.5727,0.5757,0.5813,0.5873,0.5904,0.5957,0.5992,0.6029,0.6043,0.6016,0.6018,0.6051,0.6173,0.601,0.6007,0.6068,0.626,0.6323,0.6341,0.6164,0.6166,0.6167,0.6282,0,0.5519,0.5582,0.5627,0.5674,0.5714,0.5775,0.5821,0.5882,0.5929,0.5975,0.6023,0.6051,0.6063,0.6078,0.6125,0.6141,0.6199,0.6145,0.614,0.6139,0.6196,0.6355,0.608,0.6165,0.6292,0.6294,0.6295,0,0.5524,0.557,0.5614,0.5684,0.5703,0.5733,0.5811,0.5857,0.594,0.5976,0.6037,0.6066,0.6138,0.6131,0.6232,0.6195,0.6234,0.6262,0.6266,0.6242,0.6222,0.6074,0.6179,0.5926,0.6311,0.631,0.6309,0,0.5481,0.5555,0.5584,0.5612,0.5701,0.5719,0.5764,0.5851,0.5884,0.5972,0.6003,0.6096,0.6129,0.6202,0.6285,0.6254,0.6393,0.6353,0.6459,0.6464,0.618,0.6158,0.6035,0.6431,0.6431,0.6431,0.643,0,0.5465,0.5482,0.5561,0.5576,0.56,0.5682,0.5712,0.5772,0.5854,0.589,0.5988,0.6042,0.6144,0.6239,0.6306,0.6441,0.6422,0.6492,0.6508,0.6252,0.6236,0.5958,0.5874,0.6435,0.6434,0.6433,0.6432,0,0.539,0.5452,0.5481,0.5561,0.5575,0.5588,0.5655,0.5685,0.5779,0.5829,0.5856,0.5999,0.6151,0.6282,0.6412,0.647,0.6407,0.6634,0.6351,0.6334,0.621,0.615,0.5936,0.5777,0.6768,0.677,0.6772,0,0.5355,0.5369,0.5433,0.5442,0.546,0.5496,0.552,0.5622,0.5667,0.5807,0.583,0.6,0.6141,0.64,0.6547,0.673,0.6457,0.6537,0.6443,0.6196,0.6137,0.5936,0.58,0.6153,0.615,0.6147,0.6145,0,0.5275,0.5296,0.5312,0.5341,0.5354,0.5373,0.5428,0.5444,0.5572,0.567,0.5808,0.5936,0.6218,0.6312,0.6563,0.6614,0.6199,0.6498,0.6259,0.5686,0.5425,0.5279,0.6106,0.6122,0.6124,0.6126,0.6127,0.6128,0.5196,0.5178,0.5212,0.5218,0.5239,0.524,0.5219,0.5314,0.5394,0.5478,0.569,0.5806,0.5944,0.6314,0.6329,0.6119,0.6198,0.5893,0.5859,0.5692,0.5463,0.6302,0.6339,0.6342,0.6345,0.6348,0.635,0,0.5087,0.5082,0.5094,0.5095,0.5075,0.5124,0.5147,0.5113,0.517,0.5328,0.5471,0.5523,0.5594,0.5629,0.5623,0.5453,0.5198,0.5236,0.4764,0.4683,0.5407,0.5301,0.5089,0.5089,0.509,0.509,0.509,0.5091,0.5019,0.4986,0.4989,0.4929,0.4928,0.4834,0.4811,0.4788,0.487,0.4858,0.4876,0.4984,0.504,0.5061,0.4815,0.4699,0.4292,0.4186,0.4206,0.4578,0.4629,0.4678,0.4551,0.4186,0.4185,0.3214,0.3207,0.3201]},{"header":{"parameterUnit":"m.s-1","parameterCategory":2,"la1":30.2991,"la2":30.254,"lo1":-89.0895,"lo2":-89.0444,"dx":0.0017,"dy":0.0017,"nx":28,"ny":28,"refTime":"2022-11-28T15:00:00:Z","depth":"0","parameterNumber":3,"parameterNumberName":"V-component_of_CURRENTS"},"data":[0,0,0,0,0,0,0,0,0,0,0,0,0,0,0,0,0,0,0,0,0,0,0,0,0,0,0,0,0,0,0,0,0,0,0,0,0,0,0,0,0,0,0,0,0,0,0,0,0,0,0,0,0,0,0,0,0,0,-0.2043,-0.2044,0,-0.2122,-0.2123,-0.2124,-0.2165,-0.2165,-0.2165,-0.2165,-0.1973,-0.1968,-0.1963,0,0,0,0,0,0,0,0,0,0,0,0,0,-0.1895,-0.1898,-0.2043,-0.2044,-0.2045,-0.2122,-0.2123,-0.2124,-0.2165,-0.2165,-0.2165,-0.2165,-0.1975,-0.1968,-0.1962,0,0,0,0,0,0,0,0,0,0,0,0,0,-0.1965,-0.1898,-0.2042,-0.2075,-0.2078,-0.2122,-0.2123,-0.2124,-0.2165,-0.2165,-0.2165,-0.2165,-0.1977,-0.1969,-0.1961,-0.1911,0,0,-0.1938,-0.1934,0,0,0,0,0,0,0,0,-0.1961,-0.197,-0.2069,-0.2072,-0.2077,-0.2134,-0.2001,-0.204,-0.2165,-0.2131,-0.2165,-0.2165,-0.2002,-0.1992,-0.201,-0.1902,-0.1894,-0.1937,-0.1932,-0.1929,-0.1927,0,0,0,0,0,0,0,-0.1956,-0.1967,-0.2074,-0.207,-0.2075,-0.2074,-0.2085,-0.2009,-0.2059,-0.2134,-0.2138,-0.2147,-0.2002,-0.2018,-0.2005,-0.1891,-0.1937,-0.193,-0.1925,-0.1922,-0.1827,-0.1829,0,0,0,0,0,0,-0.1949,-0.1963,-0.2071,-0.2076,-0.2018,-0.2077,-0.2089,-0.2115,-0.2066,-0.2061,-0.2147,-0.2149,-0.2031,-0.2014,-0.1998,-0.1988,-0.1929,-0.1922,-0.1917,-0.1825,-0.1828,-0.183,0,0,0,0,0,0,-0.1946,-0.1959,-0.2068,-0.202,-0.2034,-0.208,-0.2109,-0.2117,-0.2129,-0.2079,-0.2069,-0.2151,-0.203,-0.2009,-0.1961,-0.1978,-0.1918,-0.1911,-0.1823,-0.1826,-0.1829,-0.1932,0,0,0,0,0,0,-0.1942,-0.1957,-0.1965,-0.202,-0.2037,-0.2074,-0.2109,-0.2118,-0.2135,-0.2138,-0.2078,-0.2062,-0.2029,-0.1973,-0.1953,-0.1966,-0.1905,-0.182,-0.1824,-0.1828,-0.1926,-0.1938,-0.1949,0,0,0,0,0,-0.1936,-0.1938,-0.1966,-0.1978,-0.205,-0.2073,-0.208,-0.2113,-0.2135,-0.2127,-0.2123,-0.2064,-0.1985,-0.1968,-0.1944,-0.1955,-0.1818,-0.1823,-0.1828,-0.1921,-0.1936,-0.1949,0,0,0,0,0,0,-0.1875,-0.1945,-0.1975,-0.1999,-0.2028,-0.208,-0.2075,-0.2108,-0.2105,-0.2102,-0.2069,-0.2052,-0.2039,-0.1976,-0.1958,-0.1948,-0.1899,-0.1899,-0.1978,-0.1991,-0.2002,-0.192,-0.1898,0,0,0,0,0,-0.1868,-0.1889,-0.195,-0.1965,-0.1978,-0.2029,-0.2042,-0.2067,-0.2079,-0.2081,-0.2057,-0.2036,-0.2041,-0.1997,-0.1981,-0.193,-0.1874,-0.1932,-0.1944,-0.1954,-0.1876,-0.1872,-0.1875,-0.1846,-0.1846,-0.1846,0,0,-0.1847,-0.1887,-0.19,-0.1952,-0.1978,-0.1995,-0.2036,-0.2047,-0.206,-0.205,-0.2043,-0.207,-0.2047,-0.2044,-0.2027,-0.1981,-0.1944,-0.196,-0.1968,-0.1882,-0.1877,-0.188,-0.1882,-0.1849,-0.1849,-0.1848,0,0,-0.1817,-0.1852,-0.1864,-0.1886,-0.1924,-0.1953,-0.1955,-0.2006,-0.2021,-0.2025,-0.2068,-0.2096,-0.205,-0.2069,-0.2067,-0.2111,-0.2031,-0.2122,-0.2069,-0.2072,-0.2073,-0.2072,-0.2047,-0.2043,-0.2098,-0.2098,-0.2098,0,-0.1793,-0.1824,-0.1863,-0.1878,-0.1889,-0.1934,-0.194,-0.1962,-0.1994,-0.1993,-0.2017,-0.2055,-0.2061,-0.2072,-0.2121,-0.213,-0.2101,-0.2024,-0.2084,-0.2082,-0.2079,-0.2053,-0.2047,-0.2103,-0.2103,-0.2102,-0.2102,0,-0.1784,-0.18,-0.1798,-0.1841,-0.1851,-0.1854,-0.1895,-0.1902,-0.1934,-0.1963,-0.1987,-0.2034,-0.2038,-0.2096,-0.2114,-0.2124,-0.2103,-0.2129,-0.2041,-0.2088,-0.2058,-0.2051,-0.2111,-0.2109,-0.2108,-0.2106,0,0,-0.1764,-0.179,-0.1789,-0.179,-0.1831,-0.1832,-0.1841,-0.1857,-0.1844,-0.1895,-0.1879,-0.1976,-0.2,-0.1999,-0.2059,-0.2062,-0.2091,-0.2073,-0.2071,-0.203,-0.2064,-0.1941,-0.192,-0.2132,-0.213,-0.2129,-0.2064,0,-0.175,-0.1749,-0.1774,-0.1761,-0.1762,-0.1789,-0.1785,-0.1798,-0.1815,-0.1803,-0.186,-0.1873,-0.1963,-0.1981,-0.2008,-0.2066,-0.2066,-0.2102,-0.2032,-0.2027,-0.19,-0.1905,-0.1674,-0.1585,-0.2056,-0.2054,-0.2053,0,-0.1751,-0.1744,-0.1723,-0.171,-0.1711,-0.1707,-0.1687,-0.1687,-0.1684,-0.1694,-0.171,-0.1745,-0.1774,-0.1849,-0.1901,-0.1917,-0.1972,-0.2015,-0.2015,-0.1827,-0.1886,-0.1606,-0.1552,-0.1817,-0.2041,-0.2042,-0.2042,0,-0.1714,-0.1712,-0.1681,-0.1681,-0.1674,-0.1659,-0.1653,-0.165,-0.1615,-0.1607,-0.1573,-0.1621,-0.1616,-0.1694,-0.1788,-0.1844,-0.1812,-0.1914,-0.1844,-0.1837,-0.1574,-0.1545,-0.1729,-0.1919,-0.1919,-0.1919,-0.192,0,-0.1696,-0.1673,-0.1653,-0.1634,-0.1571,-0.1601,-0.1537,-0.1534,-0.1501,-0.1414,-0.15,-0.1429,-0.1573,-0.1582,-0.1704,-0.1705,-0.1749,-0.1778,-0.1792,-0.1611,-0.1587,-0.1749,-0.192,-0.1917,-0.1918,-0.1918,-0.1918,0,-0.1658,-0.1654,-0.1603,-0.157,-0.1549,-0.1499,-0.1442,-0.1383,-0.1384,-0.1266,-0.1248,-0.1257,-0.1254,-0.1379,-0.1472,-0.1555,-0.1666,-0.1609,-0.1364,-0.1349,-0.1529,-0.1711,-0.1742,-0.1827,-0.1507,-0.1504,-0.15,0,-0.1634,-0.1607,-0.1526,-0.1462,-0.1438,-0.1377,-0.131,-0.1307,-0.1239,-0.1136,-0.1053,-0.1017,-0.0893,-0.0967,-0.1098,-0.12,-0.1509,-0.1129,-0.1199,-0.1451,-0.1668,-0.1807,-0.1891,-0.0924,-0.0916,-0.091,-0.0905,0,-0.1572,-0.1539,-0.1478,-0.1344,-0.1258,-0.1163,-0.1086,-0.1004,-0.0956,-0.0818,-0.0607,-0.0479,-0.0502,-0.0418,-0.0594,-0.0728,-0.1222,-0.1004,-0.1327,-0.1236,-0.1328,-0.1444,-0.1081,-0.0849,-0.0855,-0.0859,-0.0862,-0.0864,-0.1498,-0.1431,-0.1332,-0.1205,-0.1093,-0.0936,-0.0792,-0.0665,-0.0458,-0.0113,-0.0125,0.0295,0.0196,0.0051,-0.0263,-0.0685,-0.0841,-0.0807,-0.1007,-0.1129,-0.1193,-0.0686,-0.0447,-0.045,-0.0453,-0.0455,-0.0457,0,-0.1377,-0.1314,-0.1195,-0.1021,-0.085,-0.0829,-0.0611,-0.038,-0.0026,0.0395,0.0726,0.1137,0.0925,0.0491,-0.0087,-0.0553,-0.0813,-0.0899,-0.109,-0.1185,-0.0746,-0.0707,-0.0436,-0.0436,-0.0436,-0.0436,-0.0435,-0.0435,-0.1307,-0.1172,-0.1118,-0.0834,-0.0692,-0.036,-0.0184,0.02,0.0586,0.1314,0.1823,0.2132,0.1843,0.0437,-0.0596,-0.0879,-0.1359,-0.1326,-0.1725,-0.1499,-0.151,-0.152,-0.1529,-0.1435,-0.1437,-0.2,-0.2007,-0.2011]}],[{"header":{"parameterUnit":"m.s-1","parameterCategory":2,"la1":30.2991,"la2":30.254,"lo1":-89.0895,"lo2":-89.0444,"dx":0.0017,"dy":0.0017,"nx":28,"ny":28,"refTime":"2022-11-28T15:00:00:Z","depth":"2","parameterNumber":2,"parameterNumberName":"U-component_of_CURRENTS"},"data":[0,0,0,0,0,0,0,0,0,0,0,0,0,0,0,0,0,0,0,0,0,0,0,0,0,0,0,0,0,0,0,0,0,0,0,0,0,0,0,0,0,0,0,0,0,0,0,0,0,0,0,0,0,0,0,0,0,0,0.2838,0.2838,0,0.2892,0.2893,0.2893,0.2902,0.2901,0.2901,0.29,0.2931,0.2932,0.2933,0,0,0,0,0,0,0,0,0,0,0,0,0,0.2789,0.279,0.2838,0.2838,0.2839,0.2892,0.2893,0.2894,0.2902,0.2901,0.2901,0.29,0.293,0.2932,0.2934,0,0,0,0,0,0,0,0,0,0,0,0,0,0.2824,0.279,0.2837,0.2849,0.2851,0.2892,0.2893,0.2894,0.2902,0.2901,0.2901,0.29,0.293,0.2932,0.2934,0.2962,0,0,0.294,0.2941,0,0,0,0,0,0,0,0,0.2822,0.2826,0.2847,0.2848,0.285,0.2889,0.2887,0.2915,0.2902,0.2883,0.29,0.29,0.2915,0.2918,0.2931,0.2963,0.2964,0.294,0.2941,0.2942,0.2942,0,0,0,0,0,0,0,0.2819,0.2824,0.286,0.2848,0.285,0.2868,0.2872,0.2893,0.2903,0.2885,0.2885,0.2891,0.2916,0.2929,0.2932,0.2965,0.294,0.2942,0.2943,0.2943,0.3071,0.3073,0,0,0,0,0,0,0.281,0.2821,0.2858,0.2861,0.2833,0.2869,0.2874,0.2878,0.2903,0.2906,0.2892,0.2891,0.2926,0.2929,0.2933,0.3019,0.2942,0.2944,0.2945,0.3069,0.3071,0.3074,0,0,0,0,0,0,0.2809,0.2813,0.2856,0.2842,0.2849,0.2871,0.2876,0.2879,0.2921,0.2908,0.2911,0.2933,0.2926,0.293,0.2972,0.3018,0.2945,0.2946,0.3066,0.307,0.3073,0.3157,0,0,0,0,0,0,0.2807,0.2812,0.2798,0.2841,0.2849,0.291,0.2876,0.2881,0.2924,0.2925,0.2944,0.2944,0.2926,0.297,0.2974,0.3019,0.2948,0.3063,0.3068,0.3072,0.3151,0.3163,0.3172,0,0,0,0,0,0.2805,0.2808,0.2797,0.2801,0.2834,0.2912,0.292,0.2931,0.2927,0.2963,0.2965,0.2945,0.2999,0.2973,0.2978,0.3024,0.3061,0.3066,0.3071,0.3147,0.316,0.3172,0,0,0,0,0,0,0.2769,0.281,0.2799,0.2807,0.2863,0.2914,0.295,0.2957,0.299,0.2994,0.2974,0.2976,0.3035,0.3021,0.2992,0.3074,0.3028,0.3034,0.3083,0.3096,0.3107,0.3158,0.2949,0,0,0,0,0,0.2754,0.277,0.2821,0.2827,0.2877,0.2919,0.2947,0.2965,0.3002,0.3018,0.3033,0.3043,0.3057,0.3069,0.3089,0.3132,0.3173,0.3166,0.3176,0.3185,0.3232,0.3327,0.3351,0.309,0.309,0.309,0,0,0.2762,0.2761,0.2784,0.2821,0.2878,0.2936,0.2938,0.3015,0.3053,0.3016,0.3089,0.3094,0.3081,0.3129,0.3154,0.3122,0.328,0.3192,0.3199,0.3242,0.3335,0.3361,0.3384,0.3094,0.3093,0.3093,0,0,0.2764,0.2786,0.2807,0.2866,0.2933,0.2968,0.3001,0.3086,0.3129,0.318,0.3169,0.3209,0.3226,0.3241,0.3238,0.3324,0.3341,0.3325,0.3413,0.3504,0.3527,0.3547,0.3627,0.3655,0.3319,0.332,0.332,0,0.276,0.277,0.2831,0.2868,0.2917,0.2991,0.3048,0.3112,0.3185,0.3241,0.3213,0.3301,0.328,0.3355,0.3371,0.3352,0.3408,0.3358,0.352,0.3541,0.3561,0.3638,0.3667,0.3324,0.3324,0.3323,0.3323,0,0.2769,0.2803,0.285,0.2905,0.2968,0.305,0.3147,0.3239,0.3282,0.3323,0.3441,0.3439,0.3495,0.3483,0.3442,0.3578,0.3575,0.353,0.349,0.3593,0.3667,0.3696,0.3331,0.3329,0.3328,0.3327,0,0,0.276,0.283,0.2867,0.2899,0.3002,0.3074,0.3187,0.3313,0.3418,0.3485,0.3611,0.3629,0.3672,0.3677,0.3666,0.3727,0.3882,0.3695,0.3697,0.378,0.4106,0.3953,0.3969,0.3874,0.3879,0.3884,0.4099,0,0.2767,0.2818,0.2854,0.2962,0.3029,0.3144,0.3239,0.3363,0.3475,0.3628,0.3692,0.3793,0.3734,0.378,0.3844,0.3875,0.3966,0.383,0.3991,0.3996,0.3852,0.3999,0.3683,0.3836,0.4127,0.4131,0.4135,0,0.278,0.2816,0.2886,0.3006,0.3058,0.3125,0.3344,0.3429,0.3652,0.3753,0.3899,0.3965,0.4095,0.4021,0.4186,0.4109,0.4143,0.4156,0.4163,0.4021,0.3898,0.3781,0.3877,0.4183,0.4179,0.4175,0.4172,0,0.2773,0.2863,0.2904,0.2952,0.3086,0.3177,0.3268,0.3478,0.3606,0.3866,0.3995,0.4156,0.4259,0.4341,0.4353,0.4308,0.4517,0.4445,0.4359,0.4348,0.4112,0.4069,0.4611,0.4611,0.461,0.461,0.4609,0,0.2796,0.2851,0.2912,0.2982,0.3096,0.3172,0.3349,0.3511,0.3721,0.3866,0.4061,0.4204,0.4351,0.4465,0.4462,0.4494,0.4613,0.4437,0.4415,0.4127,0.4085,0.44,0.4372,0.4618,0.4616,0.4615,0.4613,0,0.2803,0.284,0.2908,0.3043,0.3105,0.3196,0.3407,0.35,0.3735,0.395,0.4041,0.4303,0.4434,0.4539,0.4668,0.4622,0.4657,0.4638,0.4282,0.4214,0.4416,0.439,0.462,0.4617,0.4615,0.4612,0.4611,0,0.2786,0.281,0.2955,0.3031,0.3109,0.3245,0.3314,0.3518,0.3612,0.396,0.4025,0.4284,0.4373,0.4531,0.4521,0.4559,0.4623,0.4292,0.4138,0.4473,0.4429,0.4407,0.4386,0.3871,0.3863,0.3857,0.3852,0,0.2771,0.2811,0.2896,0.3061,0.3155,0.3207,0.3332,0.3412,0.36,0.3779,0.3951,0.4059,0.4246,0.4136,0.422,0.4186,0.4254,0.4162,0.4659,0.3883,0.3774,0.3727,0.373,0.3795,0.3801,0.3805,0.3808,0.3811,0.2753,0.2804,0.2936,0.3066,0.3164,0.3154,0.3134,0.322,0.3323,0.3471,0.3655,0.3694,0.3811,0.3742,0.3664,0.3672,0.3956,0.3814,0.3831,0.3856,0.3697,0.3585,0.3543,0.3547,0.3551,0.3554,0.3557,0,0.2775,0.2836,0.2931,0.3062,0.3044,0.3133,0.3109,0.2999,0.2999,0.3144,0.3217,0.3014,0.2982,0.311,0.3042,0.3091,0.3049,0.2977,0.2892,0.2954,0.3007,0.28,0.2411,0.2407,0.2402,0.2399,0,0,0.2804,0.2844,0.2856,0.2874,0.2938,0.2808,0.2714,0.2611,0.2629,0.2574,0.2577,0.275,0.2971,0.2585,0.2607,0.2486,0.2675,0.24,0.3334,0.3292,0.3338,0.3529,0.3285,0,0,0,0,0]},{"header":{"parameterUnit":"m.s-1","parameterCategory":2,"la1":30.2991,"la2":30.254,"lo1":-89.0895,"lo2":-89.0444,"dx":0.0017,"dy":0.0017,"nx":28,"ny":28,"refTime":"2022-11-28T15:00:00:Z","depth":"2","parameterNumber":3,"parameterNumberName":"V-component_of_CURRENTS"},"data":[0,0,0,0,0,0,0,0,0,0,0,0,0,0,0,0,0,0,0,0,0,0,0,0,0,0,0,0,0,0,0,0,0,0,0,0,0,0,0,0,0,0,0,0,0,0,0,0,0,0,0,0,0,0,0,0,0,0,0.0423,0.0422,0,0.0326,0.0325,0.0323,0.0273,0.0273,0.0273,0.0273,0.0119,0.0115,0.0111,0,0,0,0,0,0,0,0,0,0,0,0,0,0.0489,0.0488,0.0423,0.0422,0.0421,0.0326,0.0325,0.0323,0.0273,0.0273,0.0273,0.0273,0.0121,0.0116,0.0111,0,0,0,0,0,0,0,0,0,0,0,0,0,0.0431,0.0488,0.0423,0.0385,0.0381,0.0326,0.0325,0.0323,0.0273,0.0273,0.0273,0.0273,0.0122,0.0116,0.011,0.0069,0,0,0.0091,0.0088,0,0,0,0,0,0,0,0,0.0435,0.0429,0.0392,0.0388,0.0383,0.0313,0.0291,0.0236,0.0273,0.0312,0.0273,0.0273,0.018,0.0169,0.0149,0.0062,0.0055,0.009,0.0087,0.0084,0.0082,0,0,0,0,0,0,0,0.0439,0.0432,0.0383,0.0391,0.0386,0.0347,0.034,0.028,0.0244,0.0309,0.0305,0.0297,0.0177,0.0155,0.0145,0.0053,0.0091,0.0085,0.0081,0.0079,-0.0047,-0.0047,0,0,0,0,0,0,0.0458,0.0437,0.0386,0.038,0.0412,0.0347,0.0338,0.0334,0.0246,0.0234,0.0297,0.0295,0.0166,0.0152,0.0139,0.013,0.0084,0.0078,0.0075,-0.0048,-0.0047,-0.0047,0,0,0,0,0,0,0.046,0.0455,0.039,0.0407,0.0396,0.0346,0.0341,0.0332,0.0312,0.0238,0.0224,0.0287,0.0165,0.0148,0.0094,0.0122,0.0075,0.007,-0.0048,-0.0048,-0.0047,0.0084,0,0,0,0,0,0,0.0462,0.0456,0.0462,0.0409,0.0396,0.0368,0.0341,0.033,0.0307,0.0304,0.0225,0.0211,0.0164,0.0103,0.0087,0.0113,0.0065,-0.0049,-0.0048,-0.0047,0.0079,0.0089,0.0097,0,0,0,0,0,0.0465,0.0482,0.0463,0.0457,0.0406,0.0368,0.0358,0.0321,0.0307,0.0302,0.025,0.0213,0.0097,0.0098,0.0079,0.0104,-0.0049,-0.0048,-0.0047,0.0075,0.0087,0.0097,0,0,0,0,0,0,0.0521,0.0477,0.0455,0.046,0.0419,0.036,0.0353,0.0325,0.0279,0.0275,0.0207,0.0189,0.015,0.0103,0.0106,0.0068,0.0022,0.0019,0.0122,0.0132,0.0141,0.0194,0.006,0,0,0,0,0,0.0534,0.0539,0.0479,0.0488,0.0462,0.0406,0.0387,0.036,0.0312,0.0292,0.0239,0.0184,0.0137,0.0117,0.0058,0.0035,-0.0009,0.004,0.005,0.0058,0.0087,0.0039,0.0047,-0.0044,-0.0044,-0.0044,0,0,0.0562,0.054,0.0543,0.05,0.0461,0.0449,0.0394,0.037,0.0375,0.0281,0.0267,0.0201,0.0132,0.0109,0.009,0.0078,0.0056,0.0059,0.0067,0.0092,0.0041,0.005,0.0058,-0.0043,-0.0043,-0.0043,0,0,0.0623,0.059,0.0607,0.0576,0.0526,0.0486,0.0482,0.0419,0.0402,0.0372,0.0312,0.0271,0.0194,0.0165,0.0139,0.0161,0.0094,0.0137,0.0242,0.0195,0.0203,0.0209,0.0154,0.0154,0.0158,0.0158,0.0158,0,0.0655,0.068,0.0607,0.061,0.0612,0.051,0.0535,0.049,0.0428,0.0428,0.0387,0.0302,0.0232,0.0231,0.024,0.0186,0.0143,0.0211,0.021,0.0215,0.022,0.0161,0.016,0.0165,0.0164,0.0163,0.0163,0,0.0724,0.0743,0.0747,0.0726,0.0706,0.0712,0.0641,0.0616,0.0578,0.0543,0.052,0.0428,0.0391,0.0358,0.0306,0.0313,0.0264,0.0217,0.0192,0.0238,0.0172,0.0169,0.0174,0.0171,0.017,0.0168,0,0,0.0793,0.0802,0.0805,0.0841,0.0781,0.0782,0.077,0.0751,0.0765,0.069,0.0727,0.0635,0.0581,0.0548,0.0474,0.044,0.0414,0.0359,0.0353,0.0323,0.0306,0.0256,0.0246,0.0367,0.0367,0.0367,0.0245,0,0.0874,0.0953,0.0925,0.0999,0.1028,0.0956,0.0975,0.0938,0.0875,0.0865,0.0781,0.0759,0.0654,0.0643,0.0592,0.0463,0.0413,0.0452,0.0251,0.0246,0.0211,0.0244,0.0265,0.0157,0.0241,0.024,0.024,0,0.0941,0.0998,0.1107,0.1178,0.1184,0.1214,0.1227,0.1232,0.116,0.1111,0.1053,0.0955,0.0903,0.0796,0.0625,0.0655,0.0497,0.0386,0.0378,0.0291,0.0191,0.0124,0.0146,0.0233,0.0234,0.0234,0.0234,0,0.1047,0.1122,0.1241,0.1258,0.1303,0.1356,0.1378,0.1324,0.1341,0.1265,0.1251,0.1142,0.1108,0.0919,0.0675,0.0649,0.0475,0.0399,0.0202,0.0195,0.0156,0.0146,0.0265,0.0265,0.0266,0.0266,0.0266,0,0.1155,0.1242,0.1312,0.1379,0.1526,0.1504,0.1609,0.1583,0.1557,0.1583,0.1408,0.1395,0.1136,0.0986,0.0743,0.0482,0.0518,0.0237,0.0171,0.0198,0.0194,0.0215,0.0211,0.0261,0.0262,0.0263,0.0264,0,0.1245,0.1302,0.1425,0.1527,0.1586,0.1681,0.1775,0.1834,0.1771,0.1793,0.1783,0.1609,0.1401,0.1113,0.0808,0.0584,0.0324,0.0205,0.0254,0.0197,0.0052,0.0055,-0.0017,-0.002,-0.0022,-0.0024,-0.0025,0,0.1319,0.1393,0.1534,0.1631,0.1695,0.1831,0.1947,0.1954,0.1979,0.1917,0.1946,0.1762,0.1606,0.1156,0.074,0.0319,0.028,0.0074,0.002,0.0085,0.0028,0.0035,0.0041,0.0006,0.0005,0.0004,0.0003,0,0.1436,0.1463,0.1551,0.1731,0.1888,0.2053,0.2183,0.2226,0.2218,0.2207,0.2152,0.2035,0.1593,0.1159,0.0606,0.0338,0.0147,0.0039,0.0108,0.008,0.0098,0.0045,0.0052,-0.0005,-0.0004,-0.0004,-0.0003,-0.0003,0.1499,0.1565,0.1662,0.1821,0.1995,0.219,0.2285,0.2375,0.2439,0.2353,0.2291,0.2074,0.1656,0.0887,0.0463,0.0031,0.0045,-0.0114,-0.0108,-0.0101,-0.0071,-0.0056,-0.0184,-0.0184,-0.0184,-0.0184,-0.0184,0,0.1586,0.1646,0.1766,0.1945,0.2085,0.2208,0.2381,0.2418,0.2455,0.2423,0.2319,0.1837,0.1368,0.0894,0.022,-0.0163,-0.0166,-0.0257,-0.0186,-0.0175,-0.0166,-0.0136,-0.0269,-0.027,-0.0271,-0.0272,0,0,0.163,0.1748,0.1775,0.1965,0.2095,0.2275,0.2355,0.2412,0.2384,0.229,0.2141,0.1976,0.1432,0.0933,0.0441,0.0067,0.0041,0.0012,0.012,0.0275,0.0289,-0.0044,0.0019,0,0,0,0,0]}],[{"header":{"parameterUnit":"m.s-1","parameterCategory":2,"la1":30.2991,"la2":30.254,"lo1":-89.0895,"lo2":-89.0444,"dx":0.0017,"dy":0.0017,"nx":28,"ny":28,"refTime":"2022-11-28T15:00:00:Z","depth":"4","parameterNumber":2,"parameterNumberName":"U-component_of_CURRENTS"},"data":[0,0,0,0,0,0,0,0,0,0,0,0,0,0,0,0,0,0,0,0,0,0,0,0,0,0,0,0,0,0,0,0,0,0,0,0,0,0,0,0,0,0,0,0,0,0,0,0,0,0,0,0,0,0,0,0,0,0,0.1475,0.1476,0,0.1582,0.1583,0.1584,0.1676,0.1677,0.1678,0.1679,0.1786,0.1788,0.179,0,0,0,0,0,0,0,0,0,0,0,0,0,0.1351,0.1353,0.1475,0.1476,0.1478,0.1582,0.1583,0.1585,0.1676,0.1677,0.1679,0.168,0.1786,0.1788,0.179,0,0,0,0,0,0,0,0,0,0,0,0,0,0.1426,0.1353,0.1475,0.1536,0.1542,0.1581,0.1583,0.1585,0.1676,0.1677,0.1679,0.168,0.1785,0.1788,0.1791,0.1777,0,0,0.1799,0.18,0,0,0,0,0,0,0,0,0.1422,0.1431,0.1526,0.1532,0.1539,0.1617,0.1579,0.1649,0.1675,0.1625,0.1679,0.1681,0.1729,0.1736,0.1753,0.1782,0.1787,0.1799,0.1801,0.1802,0.1803,0,0,0,0,0,0,0,0.1416,0.1426,0.1518,0.1527,0.1535,0.1558,0.157,0.1593,0.1667,0.163,0.1637,0.1648,0.1733,0.175,0.1756,0.1789,0.1799,0.1802,0.1804,0.1805,0.1931,0.1932,0,0,0,0,0,0,0.1402,0.1422,0.1514,0.1521,0.1483,0.1559,0.1573,0.1591,0.1667,0.168,0.1646,0.1652,0.1744,0.1753,0.176,0.1851,0.1802,0.1805,0.1807,0.1929,0.1931,0.1933,0,0,0,0,0,0,0.1398,0.1409,0.151,0.1473,0.1488,0.1559,0.1579,0.1592,0.1649,0.168,0.1693,0.1694,0.1746,0.1756,0.1822,0.1852,0.1806,0.1809,0.1927,0.193,0.1932,0.1967,0,0,0,0,0,0,0.1395,0.1407,0.1433,0.1472,0.1489,0.1561,0.1578,0.1593,0.1651,0.166,0.1724,0.1733,0.1748,0.1818,0.1825,0.1855,0.1811,0.1925,0.1928,0.1931,0.1963,0.197,0.1975,0,0,0,0,0,0.139,0.1415,0.1434,0.1446,0.1517,0.1562,0.1574,0.1629,0.1652,0.1685,0.1732,0.1734,0.1842,0.1821,0.1829,0.1861,0.1924,0.1927,0.1931,0.1961,0.1969,0.1975,0,0,0,0,0,0,0.1366,0.1427,0.1449,0.149,0.1536,0.1579,0.1618,0.1646,0.1708,0.1733,0.1755,0.1768,0.184,0.1844,0.1821,0.1907,0.1882,0.1888,0.1902,0.191,0.1916,0.1936,0.1814,0,0,0,0,0,0.1371,0.1413,0.1463,0.1496,0.1526,0.1576,0.1608,0.1648,0.1697,0.1729,0.1766,0.1811,0.1853,0.1878,0.1918,0.1958,0.1985,0.1984,0.199,0.1995,0.2018,0.2088,0.2103,0.1945,0.1945,0.1945,0,0,0.1362,0.1407,0.1426,0.1495,0.1538,0.1582,0.1601,0.1666,0.1708,0.1728,0.1805,0.1842,0.1873,0.193,0.1961,0.1941,0.2052,0.2,0.2004,0.2024,0.2094,0.2109,0.2123,0.1947,0.1947,0.1947,0,0,0.1356,0.1416,0.1447,0.1499,0.1578,0.1612,0.1637,0.1705,0.1751,0.1816,0.1847,0.1906,0.1959,0.1992,0.2011,0.2071,0.209,0.2082,0.2122,0.2189,0.2203,0.2216,0.2259,0.2276,0.2076,0.2076,0.2076,0,0.135,0.1396,0.1461,0.1512,0.1557,0.1627,0.1669,0.1722,0.1802,0.185,0.1852,0.1969,0.1988,0.2064,0.2086,0.2086,0.2126,0.2087,0.2198,0.2211,0.2223,0.2265,0.2282,0.2078,0.2078,0.2078,0.2077,0,0.1359,0.1418,0.1446,0.1533,0.159,0.1645,0.1723,0.1795,0.1851,0.1902,0.2008,0.2041,0.2119,0.2119,0.2121,0.2217,0.2217,0.2203,0.2177,0.2241,0.2281,0.2298,0.2081,0.208,0.208,0.2079,0,0,0.1308,0.1424,0.1443,0.1495,0.1615,0.1661,0.1753,0.1852,0.1933,0.2006,0.2099,0.216,0.221,0.2236,0.2249,0.2288,0.2389,0.2287,0.2289,0.2327,0.2542,0.2377,0.238,0.2404,0.2407,0.241,0.253,0,0.1302,0.1371,0.1446,0.1536,0.1585,0.17,0.1772,0.1885,0.1984,0.2095,0.2162,0.226,0.2244,0.2298,0.2342,0.2396,0.2441,0.2358,0.2478,0.2482,0.2325,0.2396,0.2422,0.2543,0.2547,0.255,0.2552,0,0.1303,0.1353,0.1416,0.1552,0.1588,0.166,0.1829,0.1912,0.2086,0.2163,0.229,0.2366,0.2475,0.2433,0.2569,0.2527,0.2551,0.2562,0.2567,0.2418,0.2349,0.2471,0.2584,0.2582,0.2579,0.2577,0.2575,0,0.1238,0.1353,0.1397,0.1445,0.1591,0.1669,0.1767,0.1943,0.2039,0.2241,0.234,0.2478,0.2569,0.2637,0.2683,0.2658,0.2798,0.2763,0.2632,0.2621,0.2717,0.2703,0.2853,0.2853,0.2853,0.2853,0.2852,0,0.1212,0.1269,0.1379,0.1419,0.1505,0.164,0.178,0.1901,0.2089,0.2208,0.2387,0.2489,0.2631,0.2729,0.2743,0.2744,0.2862,0.2663,0.265,0.2726,0.2711,0.2729,0.2713,0.2857,0.2856,0.2855,0.2854,0,0.1153,0.1214,0.1291,0.1433,0.1482,0.1562,0.1774,0.1877,0.2071,0.2238,0.2314,0.2543,0.2676,0.2773,0.2878,0.2808,0.2822,0.2781,0.2864,0.285,0.2588,0.2572,0.2676,0.2671,0.2667,0.2664,0.2661,0,0.1114,0.1143,0.1283,0.1327,0.1403,0.1538,0.1629,0.1837,0.1949,0.2239,0.2298,0.252,0.2644,0.2674,0.2774,0.2811,0.2764,0.2759,0.2666,0.2598,0.2576,0.2566,0.2556,0.2655,0.2654,0.2653,0.2652,0,0.105,0.1115,0.1179,0.1263,0.1358,0.1451,0.1605,0.1665,0.1905,0.21,0.2243,0.235,0.2491,0.2579,0.2623,0.2633,0.2761,0.2717,0.2725,0.2638,0.2574,0.2553,0.2548,0.2638,0.264,0.2642,0.2642,0,0.1007,0.1028,0.1112,0.1194,0.1281,0.1329,0.1434,0.1568,0.1692,0.2002,0.2034,0.2266,0.2451,0.2488,0.2524,0.2534,0.2502,0.2413,0.2436,0.2452,0.2323,0.2205,0.2166,0,0,0,0,0,0.0947,0.0964,0.1032,0.1099,0.1186,0.1243,0.1393,0.1507,0.1728,0.1772,0.19,0.2022,0.2143,0.2264,0.2231,0.2426,0.2496,0.2378,0.2401,0.2563,0.2579,0.2446,0,0,0,0,0,0,0.0905,0.0947,0.0992,0.1,0.1037,0.1115,0.1204,0.1359,0.14,0.1634,0.171,0.1898,0.2039,0.2135,0.2192,0.2225,0.2198,0.2517,0.2512,0.2554,0.2569,0.2581,0.245,0,0,0,0,0]},{"header":{"parameterUnit":"m.s-1","parameterCategory":2,"la1":30.2991,"la2":30.254,"lo1":-89.0895,"lo2":-89.0444,"dx":0.0017,"dy":0.0017,"nx":28,"ny":28,"refTime":"2022-11-28T15:00:00:Z","depth":"4","parameterNumber":3,"parameterNumberName":"V-component_of_CURRENTS"},"data":[0,0,0,0,0,0,0,0,0,0,0,0,0,0,0,0,0,0,0,0,0,0,0,0,0,0,0,0,0,0,0,0,0,0,0,0,0,0,0,0,0,0,0,0,0,0,0,0,0,0,0,0,0,0,0,0,0,0,0.0366,0.0366,0,0.0338,0.0337,0.0337,0.0311,0.0311,0.0311,0.0311,0.0198,0.0195,0.0192,0,0,0,0,0,0,0,0,0,0,0,0,0,0.0385,0.0384,0.0366,0.0366,0.0366,0.0338,0.0337,0.0336,0.0311,0.0311,0.0311,0.0311,0.0199,0.0195,0.0191,0,0,0,0,0,0,0,0,0,0,0,0,0,0.0366,0.0384,0.0366,0.0352,0.0351,0.0338,0.0337,0.0336,0.0311,0.0311,0.0311,0.0311,0.02,0.0195,0.0191,0.0164,0,0,0.0177,0.0175,0,0,0,0,0,0,0,0,0.0367,0.0365,0.0355,0.0353,0.0352,0.0331,0.0302,0.0275,0.0311,0.0323,0.0311,0.0311,0.0236,0.0229,0.022,0.0158,0.0154,0.0177,0.0174,0.0172,0.0171,0,0,0,0,0,0,0,0.0368,0.0366,0.0352,0.0355,0.0353,0.0343,0.034,0.0297,0.0276,0.0322,0.0321,0.0323,0.0234,0.0225,0.0217,0.0152,0.0177,0.0173,0.017,0.0168,0.008,0.008,0,0,0,0,0,0,0.0378,0.0367,0.0353,0.0351,0.0363,0.0343,0.0339,0.0335,0.0279,0.0272,0.0323,0.0322,0.0233,0.0223,0.0213,0.0198,0.0172,0.0168,0.0165,0.008,0.008,0.0081,0,0,0,0,0,0,0.0379,0.0377,0.0354,0.0361,0.0358,0.0343,0.0338,0.0335,0.0335,0.028,0.0271,0.0328,0.0232,0.0219,0.0181,0.0192,0.0166,0.0162,0.0079,0.008,0.008,0.0154,0,0,0,0,0,0,0.0379,0.0377,0.0381,0.0362,0.0358,0.0359,0.0338,0.0334,0.0337,0.0335,0.0282,0.0271,0.0231,0.0188,0.0176,0.0186,0.0158,0.0079,0.008,0.008,0.0151,0.0157,0.0162,0,0,0,0,0,0.038,0.0397,0.0381,0.0379,0.0362,0.036,0.0357,0.0344,0.0337,0.0343,0.0301,0.0273,0.0184,0.0184,0.017,0.0179,0.0079,0.0079,0.008,0.0148,0.0156,0.0162,0,0,0,0,0,0,0.0409,0.0396,0.0377,0.0389,0.0377,0.0357,0.0368,0.0353,0.0327,0.0326,0.027,0.0256,0.0227,0.0192,0.0194,0.0156,0.0129,0.0128,0.0186,0.0192,0.0198,0.0217,0.0154,0,0,0,0,0,0.0415,0.0424,0.0402,0.0411,0.0409,0.0387,0.0386,0.0376,0.0351,0.0341,0.0303,0.026,0.0219,0.0198,0.0158,0.0133,0.0086,0.0132,0.0137,0.0142,0.0149,0.0081,0.0081,0.0083,0.0083,0.0083,0,0,0.0431,0.0424,0.043,0.0418,0.0409,0.0412,0.0387,0.0395,0.0396,0.033,0.0321,0.0276,0.0216,0.019,0.0175,0.0163,0.0117,0.0143,0.0148,0.0152,0.0082,0.0081,0.0081,0.0084,0.0084,0.0084,0,0,0.0471,0.0459,0.0477,0.047,0.0463,0.0445,0.0451,0.0434,0.0426,0.0406,0.036,0.0322,0.0267,0.0226,0.0196,0.0206,0.0147,0.0199,0.0241,0.0175,0.0174,0.0173,0.0117,0.011,0.0203,0.0203,0.0203,0,0.0485,0.0502,0.0483,0.0495,0.0501,0.0464,0.0484,0.0465,0.0437,0.043,0.0415,0.0332,0.0283,0.024,0.0247,0.0218,0.0174,0.0222,0.0182,0.018,0.0177,0.012,0.0111,0.0207,0.0207,0.0206,0.0206,0,0.0531,0.0544,0.0559,0.0555,0.0557,0.0572,0.0546,0.0542,0.0525,0.0498,0.0464,0.0396,0.0349,0.0327,0.0289,0.0252,0.0224,0.0196,0.0168,0.0182,0.012,0.0109,0.0212,0.0211,0.021,0.0209,0,0,0.0562,0.0586,0.0592,0.0609,0.0595,0.0607,0.0606,0.0594,0.0599,0.0553,0.0547,0.0473,0.0438,0.0403,0.0348,0.0291,0.0234,0.0246,0.0241,0.0195,0.0093,0.009,0.0077,0.0197,0.0195,0.0194,0.0058,0,0.06,0.0649,0.0648,0.0691,0.0712,0.0688,0.0694,0.0676,0.0648,0.0628,0.055,0.052,0.0465,0.045,0.0383,0.0271,0.021,0.0274,0.0082,0.0077,0.0076,0.0066,0.019,0.005,0.0048,0.0046,0.0045,0,0.064,0.067,0.073,0.0768,0.0777,0.0801,0.0814,0.0816,0.0763,0.0739,0.0684,0.0616,0.0532,0.0485,0.0301,0.0345,0.0232,0.0139,0.0131,0.0097,0.0055,0.003,0.0025,0.0027,0.0028,0.0029,0.0031,0,0.0679,0.0728,0.0788,0.0799,0.0828,0.0865,0.0884,0.086,0.0872,0.0816,0.0808,0.0684,0.0634,0.0475,0.0289,0.0293,0.0076,0.0053,-0.006,-0.0062,-0.0051,-0.0048,-0.008,-0.008,-0.008,-0.008,-0.0079,0,0.0716,0.0765,0.0823,0.0857,0.0934,0.0937,0.1006,0.0994,0.0981,0.0989,0.0883,0.0848,0.0629,0.0478,0.0303,0.0092,0.0082,-0.0054,-0.0099,-0.0016,-0.0008,-0.0059,-0.0054,-0.0085,-0.0084,-0.0083,-0.0082,0,0.0747,0.0783,0.0858,0.0926,0.096,0.1023,0.1106,0.1142,0.1121,0.1127,0.1114,0.0964,0.077,0.054,0.0266,0.0125,-0.0087,-0.0163,-0.0053,-0.0088,-0.0184,-0.0174,-0.0294,-0.0295,-0.0296,-0.0297,-0.0298,0,0.0768,0.081,0.092,0.0978,0.1024,0.1121,0.1186,0.1213,0.1242,0.1191,0.1187,0.1018,0.089,0.0514,0.0261,-0.0078,-0.0126,-0.0236,-0.0212,-0.0175,-0.0207,-0.0195,-0.0184,-0.03,-0.03,-0.03,-0.03,0,0.0804,0.0851,0.0915,0.1027,0.1128,0.1228,0.1319,0.135,0.136,0.1347,0.1244,0.1045,0.0821,0.0521,0.0254,0.0009,-0.0164,-0.0248,-0.0247,-0.0226,-0.0184,-0.0211,-0.0199,-0.0304,-0.0304,-0.0303,-0.0303,0,0.0835,0.0885,0.0969,0.1065,0.1178,0.1276,0.1343,0.1377,0.1406,0.1348,0.1307,0.1068,0.0923,0.0564,0.0314,0.0077,0.002,-0.0054,-0.0065,-0.0064,0.0042,0.0131,0.0069,0,0,0,0,0,0.0852,0.0904,0.0994,0.1101,0.1205,0.1284,0.1386,0.1436,0.1457,0.14,0.1355,0.1146,0.0777,0.0614,0.0379,0.0282,-0.0031,-0.0004,-0.0124,-0.0325,-0.032,-0.0237,0,0,0,0,0,0,0.086,0.0951,0.0986,0.1093,0.1175,0.1309,0.1389,0.1425,0.1389,0.1367,0.1181,0.1086,0.0733,0.0916,0.0374,0.03,0.019,-0.0173,-0.0178,-0.0327,-0.0323,-0.032,-0.0232,0,0,0,0,0]}]]